DW2640 Weather Reports


Display with metric or nautical units.
time (UTC)temp
F
wind
direction
speed
MPH
gust
MPH
rain 1hr
in
rain 24hr
in
rain mn
in
humidity
%
barometer
mb
20260507134529 52 269 6.0 13.0 0.00 0.00 0.00 72 1018.5
20260507133023 51 252 5.0 9.0 0.00 0.00 0.00 75 1018.5
20260507131534 50 258 4.0 6.0 0.00 0.00 0.00 79 1018.6
20260507130021 49 235 3.0 5.0 0.00 0.00 0.00 81 1018.4
20260507124522 48 254 1.0 4.0 0.00 0.00 0.00 83 1018.4
20260507123026 47 301 0.0 2.0 0.00 0.00 0.00 84 1018.4
20260507121519 46 301 1.0 2.0 0.00 0.00 0.00 86 1018.4
20260507120028 45 301 1.0 2.0 0.00 0.00 0.00 87 1018.4
20260507114516 45 301 1.0 2.0 0.00 0.00 0.00 86 1017.9
20260507113035 45 301 1.0 2.0 0.00 0.00 0.00 86 1018.0
20260507111513 45 301 0.0 1.0 0.00 0.00 0.00 84 1018.0
20260507110009 46 301 0.0 4.0 0.00 0.00 0.00 83 1018.0
20260507104512 47 301 1.0 3.0 0.00 0.00 0.00 83 1018.1
20260507103006 47 301 1.0 5.0 0.00 0.00 0.00 82 1018.2
20260507101506 47 305 2.0 5.0 0.00 0.00 0.00 81 1018.3
20260507100002 48 293 1.0 2.0 0.00 0.00 0.00 80 1018.4
20260507094620 48 293 1.0 4.0 0.00 0.00 0.00 79 1018.4
20260507093058 48 293 1.0 2.0 0.00 0.00 0.00 78 1018.3
20260507091557 49 293 1.0 4.0 0.00 0.00 0.00 76 1018.4
20260507090056 49 293 1.0 4.0 0.00 0.00 0.00 75 1018.3
20260507084600 50 293 0.0 2.0 0.00 0.00 0.00 74 1018.4
20260507083054 50 293 1.0 4.0 0.00 0.00 0.00 72 1018.4
20260507081553 51 293 1.0 4.0 0.00 0.00 0.00 72 1018.4
20260507080053 50 302 1.0 5.0 0.00 0.00 0.00 72 1018.6
20260507074551 50 280 2.0 5.0 0.00 0.00 0.00 72 1018.8
20260507073048 50 294 2.0 5.0 0.00 0.00 0.00 74 1018.9
20260507071548 50 315 2.0 5.0 0.00 0.00 0.00 75 1018.9
20260507070057 50 263 0.0 2.0 0.00 0.00 0.00 75 1019.0
20260507064548 50 250 1.0 3.0 0.00 0.00 0.00 75 1019.1
20260507063051 50 250 2.0 4.0 0.00 0.00 0.00 71 1019.2
20260507061542 49 281 1.0 2.0 0.00 0.00 0.00 76 1019.1
20260507060044 49 281 0.0 2.0 0.00 0.00 0.00 75 1019.2
20260507054542 49 67 0.0 2.0 0.00 0.00 0.00 75 1019.3
20260507053039 49 67 0.0 1.0 0.00 0.00 0.00 73 1019.3
20260507051537 49 67 0.0 2.0 0.00 0.00 0.00 71 1019.3
20260507050058 49 67 0.0 1.0 0.00 0.00 0.00 70 1019.1
20260507044546 50 67 0.0 2.0 0.00 0.00 0.00 67 1019.2
20260507043033 50 67 1.0 2.0 0.00 0.00 0.00 69 1019.0
20260507041532 51 67 0.0 1.0 0.00 0.00 0.00 67 1018.9
20260507040033 52 67 0.0 2.0 0.00 0.00 0.00 62 1018.9
20260507034536 53 67 0.0 2.0 0.00 0.00 0.00 62 1019.2
20260507033039 53 67 0.0 2.0 0.00 0.00 0.00 62 1019.0
20260507031533 55 5 0.0 4.0 0.00 0.00 0.00 60 1018.9
20260507030036 56 355 0.0 2.0 0.00 0.00 0.00 53 1018.8
20260507024535 56 9 1.0 4.0 0.00 0.00 0.00 53 1018.7
20260507023028 56 16 1.0 2.0 0.00 0.00 0.00 53 1018.5
20260507021544 56 10 0.0 5.0 0.00 0.00 0.00 54 1018.6
20260507020028 56 18 0.0 2.0 0.00 0.00 0.00 53 1018.4
20260507014527 56 5 1.0 3.0 0.00 0.00 0.00 52 1018.0
20260507013033 56 51 2.0 5.0 0.00 0.00 0.00 51 1017.9
20260507011531 57 35 3.0 5.0 0.00 0.00 0.00 49 1017.8
20260507010037 57 46 4.0 8.0 0.00 0.00 0.00 48 1017.8
20260507004524 58 42 5.0 10.0 0.00 0.00 0.00 47 1017.8
20260507003024 58 25 7.0 10.0 0.00 0.00 0.00 46 1017.7
20260507001524 58 35 7.0 12.0 0.00 0.00 0.00 45 1017.7
20260507000027 58 28 4.0 9.0 0.00 0.00 0.00 44 1017.7
20260506234524 59 38 7.0 14.0 0.00 0.00 0.00 44 1017.4
20260506233021 58 45 7.0 12.0 0.00 0.00 0.00 44 1017.4
20260506231525 59 30 7.0 14.0 0.00 0.00 0.00 42 1017.3
20260506230020 61 69 6.0 14.0 0.00 0.00 0.00 40 1017.2
20260506224519 61 56 10.0 14.0 0.00 0.00 0.00 38 1017.1
20260506223018 60 91 9.0 14.0 0.00 0.00 0.00 41 1017.0
20260506221517 61 15 6.0 13.0 0.00 0.00 0.00 40 1017.0
20260506220025 60 64 8.0 16.0 0.00 0.00 0.00 39 1017.0
20260506214516 60 28 10.0 20.0 0.00 0.00 0.00 39 1017.4
20260506213022 60 87 9.0 16.0 0.00 0.00 0.00 39 1017.2
20260506211515 61 25 9.0 14.0 0.00 0.00 0.00 39 1017.4
20260506210014 60 28 7.0 15.0 0.00 0.00 0.00 38 1017.5
20260506204514 60 9 7.0 14.0 0.00 0.00 0.00 40 1017.7
20260506203023 59 84 9.0 18.0 0.00 0.00 0.00 39 1017.9
20260506201512 60 311 4.0 16.0 0.00 0.00 0.00 40 1018.2
20260506200010 58 355 9.0 19.0 0.00 0.00 0.00 40 1018.5
20260506194512 59 77 9.0 19.0 0.00 0.00 0.00 40 1018.5
20260506193012 59 76 9.0 15.0 0.00 0.00 0.00 40 1018.5
20260506191508 58 97 11.0 18.0 0.00 0.00 0.00 40 1018.5
20260506190007 57 146 10.0 22.0 0.00 0.00 0.00 41 1018.7
20260506184504 58 65 7.0 20.0 0.00 0.00 0.00 45 1018.5
20260506183004 57 84 12.0 20.0 0.00 0.00 0.00 45 1018.9
20260506181502 57 33 10.0 20.0 0.00 0.00 0.00 46 1019.2
20260506180100 57 82 11.0 20.0 0.00 0.00 0.00 46 1019.4
20260506174602 56 70 10.0 19.0 0.00 0.00 0.00 46 1019.4
20260506173111 55 82 12.0 19.0 0.00 0.00 0.00 48 1019.6
20260506171554 55 83 12.0 25.0 0.00 0.00 0.00 51 1019.6
20260506170052 54 82 14.0 21.0 0.00 0.00 0.00 51 1019.6
20260506164552 53 62 16.0 24.0 0.00 0.00 0.00 56 1019.8
20260506163052 53 52 12.0 21.0 0.00 0.00 0.00 60 1019.1
20260506161556 54 41 10.0 20.0 0.00 0.00 0.00 63 1019.4
20260506160046 53 78 10.0 21.0 0.00 0.00 0.00 62 1019.4
20260506154542 52 60 11.0 19.0 0.00 0.00 0.00 60 1019.3
20260506153039 52 36 10.0 16.0 0.00 0.00 0.00 67 1019.3
20260506151551 51 84 7.0 18.0 0.00 0.00 0.00 68 1019.2
20260506150034 50 346 6.0 12.0 0.00 0.00 0.00 70 1019.5
20260506144533 49 46 8.0 18.0 0.00 0.00 0.00 72 1019.3
20260506143043 50 170 11.0 16.0 0.00 0.00 0.00 71 1019.2
20260506141533 49 59 8.0 12.0 0.00 0.00 0.00 70 1019.3
20260506140036 48 46 9.0 16.0 0.00 0.00 0.00 75 1018.9